Time,TemperatureF,DewpointF,PressureIn,WindDirection,WindDirectionDegrees,WindSpeedMPH,WindSpeedGustMPH,Humidity,HourlyPrecipIn,Conditions,Clouds,dailyrainin,SolarRadiationWatts/m^2,SoftwareType,DateUTC
2013-07-08 00:00:00,65.0,62.0,-100.00,ESE,112,2.0,-999.0,89,-99.99,,,-99.99,0.000000,,2013-07-08 05:00:00,
2013-07-08 00:43:00,65.0,62.0,-100.00,ESE,112,2.0,-999.0,89,-99.99,,,-99.99,0.000000,,2013-07-08 05:43:00,
2013-07-08 00:53:00,65.0,62.0,-100.00,ESE,112,2.0,-999.0,89,-99.99,,,-99.99,0.000000,,2013-07-08 05:53:00,
2013-07-08 01:00:00,61.0,59.0,-100.00,East,90,3.0,-999.0,93,-99.99,,,-99.99,0.000000,,2013-07-08 06:00:00,
2013-07-08 01:43:00,61.0,59.0,-100.00,East,90,3.0,-999.0,93,-99.99,,,-99.99,0.000000,,2013-07-08 06:43:00,
2013-07-08 01:53:00,61.0,59.0,-100.00,East,90,3.0,-999.0,93,-99.99,,,-99.99,0.000000,,2013-07-08 06:53:00,
2013-07-08 02:00:00,63.0,60.0,-100.00,ESE,112,5.0,-999.0,92,-99.99,,,-99.99,0.000000,,2013-07-08 07:00:00,
2013-07-08 02:44:00,63.0,60.0,-100.00,ESE,112,5.0,-999.0,92,-99.99,,,-99.99,0.000000,,2013-07-08 07:44:00,
2013-07-08 02:53:00,63.0,60.0,-100.00,ESE,112,5.0,-999.0,92,-99.99,,,-99.99,0.000000,,2013-07-08 07:53:00,
2013-07-08 03:00:00,65.0,62.0,-100.00,ESE,112,5.0,-999.0,91,0.05,,,-99.99,0.000000,,2013-07-08 08:00:00,
2013-07-08 03:42:00,65.0,62.0,-100.00,ESE,112,5.0,-999.0,91,0.05,,,-99.99,0.000000,,2013-07-08 08:42:00,
2013-07-08 03:53:00,65.0,62.0,-100.00,ESE,112,5.0,-999.0,91,0.05,,,-99.99,0.000000,,2013-07-08 08:53:00,
2013-07-08 04:00:00,66.0,64.0,-100.00,ESE,112,4.0,-999.0,93,-99.99,,,-99.99,0.000000,,2013-07-08 09:00:00,
2013-07-08 04:43:00,66.0,64.0,-100.00,ESE,112,4.0,-999.0,93,-99.99,,,-99.99,0.000000,,2013-07-08 09:43:00,
2013-07-08 04:53:00,66.0,64.0,-100.00,ESE,112,4.0,-999.0,93,-99.99,,,-99.99,0.000000,,2013-07-08 09:53:00,
2013-07-08 05:00:00,65.0,63.0,-100.00,East,90,5.0,-999.0,93,0.61,,,-99.99,0.000000,,2013-07-08 10:00:00,
2013-07-08 05:43:00,65.0,63.0,-100.00,East,90,5.0,-999.0,93,0.61,,,-99.99,0.000000,,2013-07-08 10:43:00,
2013-07-08 05:53:00,65.0,63.0,-100.00,East,90,5.0,-999.0,93,0.61,,,-99.99,0.000000,,2013-07-08 10:53:00,
2013-07-08 06:00:00,67.0,66.0,-100.00,NNE,22,4.0,-999.0,94,0.86,,,-99.99,0.000000,,2013-07-08 11:00:00,
2013-07-08 06:33:00,67.0,66.0,-100.00,NNE,22,4.0,-999.0,94,0.86,,,-99.99,0.000000,,2013-07-08 11:33:00,
2013-07-08 06:43:00,67.0,66.0,-100.00,NNE,22,4.0,-999.0,94,0.86,,,-99.99,0.000000,,2013-07-08 11:43:00,
2013-07-08 06:53:00,67.0,66.0,-100.00,NNE,22,4.0,-999.0,94,0.86,,,-99.99,0.000000,,2013-07-08 11:53:00,
2013-07-08 07:00:00,67.0,65.0,-100.00,East,90,6.0,-999.0,95,0.19,,,-99.99,3.480000,,2013-07-08 12:00:00,
2013-07-08 07:43:00,67.0,65.0,-100.00,East,90,6.0,-999.0,95,0.19,,,-99.99,3.480000,,2013-07-08 12:43:00,
2013-07-08 07:53:00,67.0,65.0,-100.00,East,90,6.0,-999.0,95,0.19,,,-99.99,3.480000,,2013-07-08 12:53:00,
2013-07-08 08:00:00,66.0,64.0,-100.00,East,90,7.0,-999.0,95,0.09,,,-99.99,34.799999,,2013-07-08 13:00:00,
2013-07-08 08:42:00,66.0,64.0,-100.00,East,90,7.0,-999.0,95,0.09,,,-99.99,34.799999,,2013-07-08 13:42:00,
2013-07-08 08:53:00,66.0,64.0,-100.00,East,90,7.0,-999.0,95,0.09,,,-99.99,34.799999,,2013-07-08 13:53:00,
2013-07-08 09:00:00,65.0,64.0,-100.00,ESE,112,5.0,-999.0,95,-99.99,,,-99.99,125.279999,,2013-07-08 14:00:00,
2013-07-08 09:43:00,65.0,64.0,-100.00,ESE,112,5.0,-999.0,95,-99.99,,,-99.99,125.279999,,2013-07-08 14:43:00,
2013-07-08 09:53:00,65.0,64.0,-100.00,ESE,112,5.0,-999.0,95,-99.99,,,-99.99,125.279999,,2013-07-08 14:53:00,
2013-07-08 10:00:00,68.0,65.0,-100.00,SE,135,5.0,-999.0,92,-99.99,,,-99.99,407.160004,,2013-07-08 15:00:00,
2013-07-08 10:43:00,68.0,65.0,-100.00,SE,135,5.0,-999.0,92,-99.99,,,-99.99,407.160004,,2013-07-08 15:43:00,
2013-07-08 10:53:00,68.0,65.0,-100.00,SE,135,5.0,-999.0,92,-99.99,,,-99.99,407.160004,,2013-07-08 15:53:00,
2013-07-08 11:00:00,68.0,65.0,-100.00,SSE,157,3.0,-999.0,90,-99.99,,,-99.99,185.600006,,2013-07-08 16:00:00,
2013-07-08 11:43:00,68.0,65.0,-100.00,SSE,157,3.0,-999.0,90,-99.99,,,-99.99,185.600006,,2013-07-08 16:43:00,
2013-07-08 11:57:00,68.0,65.0,-100.00,SSE,157,3.0,-999.0,90,-99.99,,,-99.99,185.600006,,2013-07-08 16:57:00,
2013-07-08 12:48:00,69.0,66.0,-100.00,NNW,337,5.0,-999.0,90,-99.99,,,-99.99,171.679993,,2013-07-08 17:48:00,
2013-07-08 12:55:00,69.0,66.0,-100.00,NNW,337,5.0,-999.0,90,-99.99,,,-99.99,171.679993,,2013-07-08 17:55:00,
2013-07-08 13:00:00,70.0,66.0,-100.00,NE,45,3.0,-999.0,87,-99.99,,,-99.99,257.519989,,2013-07-08 18:00:00,
2013-07-08 13:55:00,70.0,66.0,-100.00,NE,45,3.0,-999.0,87,-99.99,,,-99.99,257.519989,,2013-07-08 18:55:00,
2013-07-08 14:00:00,73.0,67.0,-100.00,North,0,3.0,-999.0,82,-99.99,,,-99.99,415.279999,,2013-07-08 19:00:00,
2013-07-08 14:57:00,73.0,67.0,-100.00,North,0,3.0,-999.0,82,-99.99,,,-99.99,415.279999,,2013-07-08 19:57:00,
2013-07-08 15:56:00,76.0,66.0,-100.00,North,0,5.0,-999.0,72,-99.99,,,-99.99,646.119995,,2013-07-08 20:56:00,
2013-07-08 16:00:00,77.0,66.0,-100.00,North,0,5.0,-999.0,68,-99.99,,,-99.99,667.000000,,2013-07-08 21:00:00,
2013-07-08 17:00:00,78.0,66.0,-100.00,NNE,22,4.0,-999.0,65,-99.99,,,-99.99,603.200012,,2013-07-08 22:00:00,
2013-07-08 18:00:00,78.0,65.0,-100.00,North,0,4.0,-999.0,64,-99.99,,,-99.99,432.679993,,2013-07-08 23:00:00,
2013-07-08 19:00:00,76.0,66.0,-100.00,ENE,67,3.0,-999.0,70,-99.99,,,-99.99,269.119995,,2013-07-09 00:00:00,
2013-07-08 20:00:00,70.0,65.0,-100.00,ESE,112,4.0,-999.0,86,-99.99,,,-99.99,113.680000,,2013-07-09 01:00:00,
2013-07-08 21:00:00,66.0,64.0,-100.00,ESE,112,2.0,-999.0,92,-99.99,,,-99.99,13.920000,,2013-07-09 02:00:00,
2013-07-08 22:00:00,65.0,63.0,-100.00,East,90,1.0,-999.0,94,-99.99,,,-99.99,0.000000,,2013-07-09 03:00:00,
2013-07-08 23:00:00,64.0,63.0,-100.00,NNW,337,1.0,-999.0,95,-99.99,,,-99.99,0.000000,,2013-07-09 04:00:00,
2013-07-08 23:34:00,64.0,63.0,-100.00,NNW,337,1.0,-999.0,95,-99.99,,,-99.99,0.000000,,2013-07-09 04:34:00,
2013-07-08 23:43:00,64.0,63.0,-100.00,NNW,337,1.0,-999.0,95,-99.99,,,-99.99,0.000000,,2013-07-09 04:43:00,
2013-07-08 23:53:00,64.0,63.0,-100.00,NNW,337,1.0,-999.0,95,-99.99,,,-99.99,0.000000,,2013-07-09 04:53:00,